FW4383 Weather Reports


Display with metric or nautical units.
time (UTC)temp
F
wind
direction
speed
MPH
gust
MPH
rain 1hr
in
rain 24hr
in
rain mn
in
humidity
%
barometer
mb
20260504024536 80 90 0.0 2.0 0.00 0.00 0.00 35 1009.3
20260504023036 83 94 1.0 5.0 0.00 0.00 0.00 33 1009.4
20260504021536 86 90 0.0 4.0 0.00 0.00 0.00 29 1009.5
20260504020030 87 67 1.0 5.0 0.00 0.00 0.00 28 1009.6
20260504014535 88 66 2.0 4.0 0.00 0.00 0.00 28 1009.8
20260504013035 89 49 2.0 5.0 0.00 0.00 0.00 27 1009.9
20260504011532 89 73 2.0 5.0 0.00 0.00 0.00 27 1010.0
20260504004530 90 63 2.0 6.0 0.00 0.00 0.00 26 1010.3
20260504003037 90 67 2.0 8.0 0.00 0.00 0.00 25 1010.4
20260504001609 91 101 2.0 6.0 0.00 0.00 0.00 25 1010.5
20260504000141 92 56 2.0 7.0 0.00 0.00 0.00 24 1010.7
20260503234536 91 114 2.0 7.0 0.00 0.00 0.00 23 1011.0
20260503231531 91 104 2.0 7.0 0.00 0.00 0.00 24 1011.3
20260503224532 91 107 2.0 10.0 0.00 0.00 0.00 25 1011.8
20260503221534 90 136 3.0 6.0 0.00 0.00 0.00 24 1012.4
20260503220036 90 113 3.0 9.0 0.00 0.00 0.00 25 1012.6
20260503213029 88 118 5.0 10.0 0.00 0.00 0.00 25 1013.0
20260503211534 89 97 4.0 13.0 0.00 0.00 0.00 27 1013.2
20260503210035 88 112 4.0 10.0 0.00 0.00 0.00 29 1013.4
20260503204643 87 128 3.0 7.0 0.00 0.00 0.00 29 1013.5
20260503203033 88 83 2.0 9.0 0.00 0.00 0.00 30 1013.8
20260503200032 84 353 2.0 7.0 0.00 0.00 0.00 36 1014.1
20260503194529 83 327 3.0 7.0 0.00 0.00 0.00 38 1014.2
20260503193033 82 319 3.0 6.0 0.00 0.00 0.00 41 1014.4
20260503191531 81 346 3.0 6.0 0.00 0.00 0.00 43 1014.7
20260503190035 79 336 3.0 6.0 0.00 0.00 0.00 46 1014.9
20260503183035 77 308 3.0 6.0 0.00 0.00 0.00 46 1015.2
20260503181528 76 334 2.0 6.0 0.00 0.00 0.00 48 1015.4
20260503180036 75 340 1.0 4.0 0.00 0.00 0.00 52 1015.6
20260503174532 74 350 1.0 4.0 0.00 0.00 0.00 54 1015.7
20260503173032 74 337 0.0 3.0 0.00 0.00 0.00 55 1015.9
20260503171535 73 30 1.0 3.0 0.00 0.00 0.00 56 1016.0
20260503150111 54 182 1.0 5.0 0.00 0.00 0.00 93 1016.9
20260503120142 45 180 0.0 2.0 0.00 0.00 0.00 95 1016.3
20260503081530 52 180 0.0 2.0 0.00 0.00 0.00 92 1016.0
20260503071532 53 180 0.0 0.0 0.00 0.00 0.00 91 1016.0
20260503060111 56 67 0.0 0.0 0.00 0.00 0.00 88 1015.8
20260503054537 57 67 0.0 0.0 0.00 0.00 0.00 88 1015.8
20260503053143 57 67 0.0 0.0 0.00 0.00 0.00 87 1015.9
20260503051535 58 67 0.0 0.0 0.00 0.00 0.00 86 1015.8
20260503050141 58 67 0.0 0.0 0.00 0.00 0.00 85 1015.7
20260503044608 58 51 0.0 0.0 0.00 0.00 0.00 84 1015.7
20260503043036 59 45 0.0 0.0 0.00 0.00 0.00 83 1015.4
20260503041535 60 45 0.0 0.0 0.00 0.00 0.00 80 1015.3
20260503040110 62 45 0.0 0.0 0.00 0.00 0.00 77 1015.0
20260503034534 63 45 0.0 0.0 0.00 0.00 0.00 75 1014.6
20260503033032 65 45 0.0 2.0 0.00 0.00 0.00 73 1014.2